[[{"header":{"parameterUnit":"m.s-1","parameterCategory":1,"la1":30.2991,"la2":30.254,"lo1":-89.0895,"lo2":-89.0444,"dy":0.0017,"dx":0.0017,"nx":28,"ny":28,"refTime":"2024-05-18T03:00:00:Z","depth":0,"parameterNumber":2,"parameterNumberName":"U-component_of_WINDS"},"data":[0,0,0,0,0,0,0,0,0,0,0,0,0,0,0,0,0,0,0,0,0,0,0,0,0,0,0,0,0,0,0,0,0,0,0,0,0,0,0,0,0,0,0,0,0,0,0,0,0,0,0,0,0,0,0,0,0,0,1.3855,1.3856,0,1.3977,1.3978,1.398,1.3997,1.3995,1.3994,1.3993,1.4119,1.4123,1.4127,0,0,0,0,0,0,0,0,0,0,0,0,0,1.3636,1.364,1.3855,1.3856,1.3858,1.3977,1.3978,1.398,1.3997,1.3995,1.3994,1.3993,1.4117,1.4122,1.4128,0,0,0,0,0,0,0,0,0,0,0,0,0,1.3742,1.3641,1.3855,1.3881,1.3884,1.3976,1.3978,1.398,1.3997,1.3995,1.3994,1.3992,1.4115,1.4122,1.4128,1.4203,0,0,1.4148,1.4151,0,0,0,0,0,0,0,0,1.3736,1.375,1.3875,1.3879,1.3883,1.397,1.3947,1.4055,1.3997,1.3954,1.3993,1.3991,1.407,1.4081,1.4107,1.4209,1.4214,1.4149,1.4153,1.4156,1.4158,0,0,0,0,0,0,0,1.3729,1.3745,1.3903,1.3877,1.3882,1.3886,1.3899,1.3968,1.402,1.3958,1.3959,1.3973,1.4072,1.4101,1.411,1.4216,1.4149,1.4155,1.4159,1.4161,1.4384,1.4385,0,0,0,0,0,0,1.3716,1.3739,1.3899,1.3907,1.3804,1.3891,1.3906,1.3944,1.402,1.403,1.3975,1.3974,1.409,1.4103,1.4115,1.4206,1.4156,1.4162,1.4166,1.4382,1.4384,1.4386,0,0,0,0,0,0,1.3712,1.3731,1.3894,1.3823,1.3844,1.3897,1.3939,1.3947,1.3975,1.4033,1.4042,1.3994,1.409,1.4106,1.4181,1.421,1.4165,1.4171,1.4379,1.4382,1.4385,1.4389,0,0,0,0,0,0,1.3705,1.3729,1.3758,1.3824,1.3848,1.3958,1.3941,1.3951,1.3987,1.3987,1.4053,1.4063,1.4089,1.4171,1.4187,1.4219,1.4176,1.4377,1.4381,1.4384,1.4387,1.4392,1.4396,0,0,0,0,0,1.3698,1.3755,1.3759,1.3779,1.3885,1.396,1.3974,1.4003,1.3989,1.4018,1.4055,1.4061,1.4205,1.4178,1.4197,1.4231,1.4375,1.438,1.4384,1.4384,1.4391,1.4396,0,0,0,0,0,0,1.3692,1.3764,1.377,1.385,1.3899,1.3962,1.4,1.4009,1.4063,1.4061,1.4095,1.411,1.4183,1.4215,1.4184,1.4306,1.4289,1.4297,1.4283,1.4289,1.4294,1.4284,1.4182,0,0,0,0,0,1.3699,1.3754,1.3814,1.3879,1.3903,1.3948,1.3981,1.3999,1.4051,1.4072,1.4114,1.4164,1.422,1.4257,1.4312,1.4392,1.4406,1.4424,1.4429,1.4433,1.4439,1.4482,1.449,1.44,1.44,1.44,0,0,1.3717,1.3763,1.3795,1.3879,1.3919,1.3974,1.3965,1.4024,1.4065,1.4081,1.4154,1.4186,1.4245,1.4321,1.4358,1.435,1.4467,1.4438,1.4441,1.4445,1.4487,1.4496,1.4503,1.4403,1.4403,1.4402,0,0,1.3775,1.3817,1.3874,1.3914,1.3974,1.4003,1.4017,1.408,1.4102,1.4175,1.4188,1.4238,1.4335,1.4375,1.4408,1.4481,1.4488,1.4498,1.4523,1.4565,1.4572,1.4578,1.4602,1.4611,1.4505,1.4505,1.4505,0,1.3789,1.3872,1.3903,1.3961,1.3997,1.4014,1.4072,1.4109,1.4185,1.4209,1.42,1.432,1.4361,1.4447,1.4464,1.4491,1.4507,1.449,1.4568,1.4575,1.4581,1.4605,1.4614,1.4505,1.4505,1.4505,1.4505,0,1.3885,1.3943,1.3982,1.4054,1.4094,1.4152,1.4191,1.4229,1.4243,1.4273,1.4347,1.4396,1.4461,1.4483,1.4498,1.4571,1.4564,1.4561,1.4544,1.459,1.4613,1.4622,1.4506,1.4506,1.4506,1.4506,0,0,1.3943,1.403,1.4044,1.4076,1.4143,1.4188,1.4247,1.4309,1.434,1.4391,1.444,1.4521,1.4519,1.4556,1.4577,1.4613,1.4665,1.4606,1.4607,1.4613,1.4746,1.4746,1.4757,1.4671,1.4673,1.4674,1.4741,0,1.4008,1.4112,1.4141,1.4229,1.4282,1.4299,1.4349,1.4396,1.4425,1.4474,1.4507,1.4563,1.4556,1.4579,1.4615,1.4651,1.4692,1.4647,1.4716,1.4718,1.4699,1.4769,1.477,1.483,1.475,1.4751,1.4753,0,1.4098,1.415,1.4243,1.4302,1.4326,1.4371,1.443,1.4477,1.453,1.4548,1.459,1.4606,1.4667,1.4647,1.4731,1.4699,1.4729,1.4751,1.4754,1.476,1.4737,1.4775,1.485,1.4859,1.4767,1.4766,1.4765,0,1.4128,1.4222,1.429,1.4317,1.4388,1.4419,1.445,1.4501,1.4537,1.4589,1.4612,1.467,1.4702,1.4747,1.4778,1.4761,1.4858,1.4842,1.4875,1.4874,1.4893,1.4891,1.4972,1.4915,1.4915,1.4915,1.4915,0,1.4197,1.4253,1.4304,1.4345,1.4408,1.4441,1.4502,1.4534,1.4579,1.4626,1.4645,1.4688,1.4728,1.4777,1.4803,1.4867,1.4882,1.4898,1.4903,1.4895,1.4893,1.4914,1.491,1.4917,1.4917,1.4916,1.4916,0,1.4241,1.4278,1.4352,1.4413,1.443,1.4473,1.4526,1.4566,1.4596,1.4655,1.4671,1.4718,1.4777,1.4813,1.4888,1.4905,1.4975,1.498,1.4957,1.4959,1.4989,1.4985,1.5086,1.51,1.5034,1.5035,1.5036,0,1.4282,1.4325,1.4391,1.4424,1.4455,1.4508,1.4544,1.4578,1.4614,1.4677,1.471,1.4769,1.4819,1.4912,1.4952,1.5009,1.5015,1.5046,1.5023,1.5013,1.5013,1.5009,1.5013,1.5049,1.505,1.505,1.5051,0,1.4349,1.4365,1.4416,1.4474,1.4516,1.4563,1.461,1.4636,1.4677,1.4718,1.4778,1.4816,1.4892,1.495,1.501,1.5042,1.5053,1.5057,1.5068,1.5059,1.5043,1.505,1.4965,1.5055,1.5054,1.5054,1.5054,1.5054,1.4392,1.443,1.4482,1.4538,1.4577,1.462,1.4661,1.4695,1.4746,1.481,1.4827,1.4889,1.494,1.5022,1.5055,1.5104,1.5099,1.5115,1.5118,1.5121,1.5121,1.5036,1.5115,1.5115,1.5115,1.5115,1.5115,0,1.4458,1.4493,1.4544,1.4609,1.4653,1.4659,1.4711,1.4747,1.4802,1.4848,1.4896,1.4965,1.5021,1.5066,1.5124,1.5155,1.5161,1.5169,1.5166,1.5173,1.5122,1.5107,1.5162,1.5162,1.5162,1.5162,1.5162,1.5162,1.4498,1.4563,1.4585,1.4669,1.4703,1.4764,1.4793,1.4833,1.487,1.4945,1.4992,1.5021,1.5066,1.5128,1.518,1.5191,1.5211,1.5218,1.523,1.5182,1.5177,1.5171,1.5157,1.5222,1.5222,1.5276,1.5277,1.5277]},{"header":{"parameterUnit":"m.s-1","parameterCategory":1,"la1":30.2991,"la2":30.254,"lo1":-89.0895,"lo2":-89.0444,"dy":0.0017,"dx":0.0017,"nx":28,"ny":28,"refTime":"2024-05-18T03:00:00:Z","depth":0,"parameterNumber":3,"parameterNumberName":"V-component_of_WINDS"},"data":[0,0,0,0,0,0,0,0,0,0,0,0,0,0,0,0,0,0,0,0,0,0,0,0,0,0,0,0,0,0,0,0,0,0,0,0,0,0,0,0,0,0,0,0,0,0,0,0,0,0,0,0,0,0,0,0,0,0,2.5521,2.5521,0,2.5509,2.5509,2.5509,2.5447,2.5446,2.5444,2.5443,2.5431,2.5432,2.5433,0,0,0,0,0,0,0,0,0,0,0,0,0,2.5487,2.5488,2.5521,2.5521,2.5521,2.5509,2.5509,2.5509,2.5447,2.5446,2.5444,2.5442,2.543,2.5431,2.5433,0,0,0,0,0,0,0,0,0,0,0,0,0,2.5491,2.5488,2.5521,2.5488,2.5485,2.5509,2.5509,2.5509,2.5448,2.5446,2.5443,2.5441,2.543,2.5431,2.5433,2.5487,0,0,2.5438,2.5438,0,0,0,0,0,0,0,0,2.5491,2.5493,2.5493,2.5491,2.5487,2.5477,2.5493,2.5502,2.5448,2.5462,2.5443,2.544,2.5448,2.5448,2.5451,2.5487,2.5486,2.5438,2.5439,2.5439,2.544,0,0,0,0,0,0,0,2.5491,2.5493,2.5516,2.5493,2.549,2.5474,2.5472,2.5494,2.5468,2.5461,2.5456,2.5456,2.5446,2.5449,2.545,2.5486,2.5438,2.5439,2.544,2.5441,2.5563,2.5565,0,0,0,0,0,0,2.5495,2.5493,2.5517,2.5516,2.5484,2.5476,2.5474,2.5483,2.5467,2.5463,2.5458,2.5453,2.5448,2.5448,2.5449,2.5509,2.5439,2.5441,2.5442,2.556,2.5563,2.5565,0,0,0,0,0,0,2.5495,2.5498,2.5517,2.5503,2.5504,2.5479,2.5489,2.5484,2.5487,2.5465,2.546,2.5466,2.5446,2.5447,2.5477,2.5508,2.5442,2.5443,2.5558,2.5561,2.5564,2.5631,0,0,0,0,0,0,2.5494,2.5498,2.5519,2.5504,2.5505,2.5546,2.5491,2.5485,2.549,2.5484,2.5471,2.5467,2.5444,2.5475,2.5479,2.5509,2.5444,2.5555,2.5559,2.5563,2.5626,2.5637,2.5645,0,0,0,0,0,2.5493,2.5539,2.5521,2.5524,2.5531,2.5548,2.5549,2.5522,2.5493,2.5513,2.5498,2.5468,2.5505,2.5479,2.5483,2.5513,2.5553,2.5558,2.5563,2.5622,2.5634,2.5645,0,0,0,0,0,0,2.5559,2.5537,2.5516,2.5558,2.5556,2.5538,2.5563,2.5536,2.5542,2.5536,2.5502,2.5499,2.5534,2.5527,2.5499,2.5564,2.5523,2.5529,2.5567,2.5579,2.5588,2.5588,2.5446,0,0,0,0,0,2.5578,2.5595,2.5574,2.5614,2.5613,2.5588,2.5595,2.5574,2.557,2.5568,2.5556,2.5553,2.5563,2.5571,2.5579,2.5625,2.562,2.5648,2.5658,2.5666,2.5671,2.5692,2.5703,2.5582,2.5582,2.5582,0,0,2.5619,2.5608,2.5621,2.5626,2.5622,2.5638,2.5588,2.5608,2.5619,2.5571,2.5598,2.559,2.5583,2.5621,2.5637,2.5616,2.5703,2.5672,2.5679,2.5679,2.5698,2.571,2.572,2.5586,2.5585,2.5585,0,0,2.57,2.5695,2.5725,2.5722,2.5715,2.5698,2.5706,2.5691,2.5683,2.571,2.5674,2.5687,2.5706,2.5703,2.5703,2.5781,2.5752,2.5785,2.5835,2.5856,2.5865,2.5874,2.5899,2.5909,2.5791,2.5791,2.5791,0,2.575,2.5774,2.5745,2.5766,2.5769,2.5726,2.5756,2.5754,2.5751,2.5753,2.573,2.5752,2.5745,2.578,2.5799,2.5802,2.5808,2.5786,2.5867,2.5874,2.5882,2.5906,2.5916,2.5795,2.5794,2.5794,2.5794,0,2.5835,2.5852,2.5878,2.5875,2.5881,2.5907,2.588,2.5889,2.5868,2.5853,2.588,2.587,2.5875,2.5882,2.5862,2.5913,2.59,2.5873,2.5831,2.5897,2.5919,2.5928,2.58,2.5799,2.5798,2.5797,0,0,2.5957,2.5937,2.5946,2.5943,2.5932,2.5944,2.5968,2.5972,2.5979,2.5979,2.5996,2.6013,2.5986,2.5987,2.5966,2.5985,2.6044,2.5954,2.5954,2.5969,2.6098,2.6118,2.6129,2.6026,2.6028,2.6029,2.6098,0,2.6033,2.6071,2.6045,2.6087,2.6101,2.606,2.608,2.6075,2.6061,2.607,2.6056,2.6067,2.6033,2.6032,2.6049,2.6034,2.6069,2.6029,2.604,2.6041,2.6041,2.6141,2.6162,2.6227,2.6106,2.6108,2.6109,0,2.6126,2.6128,2.6172,2.6155,2.616,2.6179,2.6179,2.619,2.6182,2.6171,2.6171,2.6145,2.6165,2.6126,2.6152,2.6125,2.6128,2.6121,2.6123,2.6122,2.6078,2.614,2.6248,2.6257,2.6122,2.6121,2.612,0,2.6207,2.6221,2.6248,2.6247,2.623,2.6244,2.6237,2.6228,2.6231,2.6232,2.6233,2.6237,2.6238,2.6241,2.6216,2.619,2.6245,2.6204,2.6235,2.6235,2.6247,2.6246,2.6355,2.6253,2.6253,2.6252,2.6252,0,2.6293,2.6321,2.6284,2.6301,2.633,2.6299,2.6329,2.6318,2.6309,2.6322,2.6288,2.63,2.6267,2.6276,2.6257,2.628,2.6282,2.6272,2.6266,2.6274,2.6275,2.6274,2.6268,2.6255,2.6254,2.6254,2.6253,0,2.6388,2.6365,2.6391,2.6372,2.6368,2.639,2.6374,2.6388,2.6372,2.6388,2.639,2.6365,2.6374,2.6349,2.6354,2.6341,2.6375,2.6363,2.6377,2.6372,2.6404,2.6401,2.6515,2.6527,2.6419,2.642,2.6421,0,2.6443,2.6463,2.6446,2.6452,2.6447,2.6457,2.646,2.6431,2.6435,2.6427,2.6442,2.6448,2.645,2.6466,2.6448,2.6451,2.6437,2.6477,2.6438,2.6444,2.6435,2.6434,2.6434,2.6485,2.6486,2.6487,2.6488,0,2.6543,2.653,2.6536,2.6537,2.6542,2.6541,2.6539,2.6546,2.6513,2.652,2.6528,2.653,2.6535,2.654,2.6539,2.6532,2.6504,2.6501,2.6508,2.6515,2.6522,2.6516,2.6397,2.6498,2.6497,2.6496,2.6496,2.6495,2.6618,2.6633,2.6622,2.6629,2.6624,2.6622,2.6634,2.6619,2.6625,2.6626,2.6608,2.6619,2.661,2.6606,2.6601,2.6609,2.659,2.6601,2.6603,2.6606,2.661,2.6522,2.6609,2.6608,2.6608,2.6608,2.6607,0,2.6714,2.6705,2.6712,2.6708,2.6713,2.6687,2.6682,2.6688,2.6699,2.6692,2.6695,2.6704,2.6709,2.6691,2.6693,2.6702,2.6689,2.6704,2.6702,2.67,2.6628,2.662,2.6714,2.6714,2.6714,2.6714,2.6714,2.6714,2.6764,2.6787,2.6773,2.6792,2.6783,2.6794,2.6793,2.679,2.6785,2.6795,2.6799,2.6787,2.6776,2.6776,2.6779,2.6774,2.6775,2.6793,2.6783,2.6716,2.6705,2.6695,2.6688,2.6794,2.6794,2.6855,2.6855,2.6856]}]]